www.pogodaiklimat.ru

Погода и климат >> Архив погоды >> Россия >> Камчатский край >> Начики


АРХИВ ПОГОДЫ в Начиках

Время (UTC), дата Ветер
(напр.,м/с)
 
Видим.   Явления Облачность Т
(С)
Тd
(С)
f
(%)
Тe
(С)
Тes
(С)
Комфортность P
(гПа)
Po
(гПа)
Тmin
(С)
Tmax
(С)
R
(мм)
R24
(мм)
S
(см)
00 20.03 СЗ 5 2000 м слаб. ливневой снег {метель} 10/10 600 м
[Cb cap]
-10.4 -13.8 76 -18 -18 996.2 956.1
03 20.03 З 4
{10}
4000 м слаб. ливневой снег {метель} 9/8 600 м
[Cb cap Ci sp]
-8.4 -15.2 58 -15 -14 996.5 956.7
06 20.03 ЮЗ 3 4000 м слаб. ливневой снег {метель} 9/8 600 м
[Cb cap Ci sp]
-9.6 -15.6 62 -15 -15 998.6 958.6
09 20.03 ЮЗ 3 50 км {ливн. осадки, метель} 8/6 600 м
[Sc Ci sp]
-13.9 -19.2 64 -20 -20 1002.1 961.3 -7.8 1
12 20.03 ЮЗ 4 50 км позёмок {ливн. осадки} 10/4 1000 м
[Sc Ci sp]
-16.0 -21.1 65 -24 -24 1002.9 961.7
15 20.03 СЗ 1 50 км {метель} 10/4 1000 м
[Sc Ci sp]
-24.8 -28.1 74 -28 -28 1005.3 962.6
18 20.03 ЮВ 1 50 км {метель} 4/0
[Ci sp]
-33.8 -38.4 63 -38 -38 опасность
обморожения
1007.1 962.7
21 20.03 штиль 0 50 км 3/3 1000 м
[Sc]
-29.7 -33.7 68 -30 -28 1005.6 962.0 -35.2 164
00 21.03 СЗ 3 50 км 3/3 1000 м
[Sc]
-11.0 -22.5 38 -17 -13 1001.9 961.5
03 21.03 З 6-11
{13}
50 км позёмок 4/4 1000 м
[Sc]
-9.6 -20.7 40 -18 -16 1001.0 960.9
06 21.03 З 5
{13}
50 км позёмок 4/4 1000 м
[Sc]
-9.8 -20.2 42 -17 -17 1002.7 962.4
09 21.03 З 3
{10}
50 км позёмок 4/4 1000 м
[Sc]
-11.9 -21.1 46 -18 -18 1006.0 965.3 -9.2
12 21.03 З 3 50 км {метель} 3/3 1000 м
[Sc]
-14.8 -22.5 52 -21 -21 1007.8 966.6
15 21.03 ЮЗ 1 50 км 6/3 1000 м
[Sc As trans]
-24.1 -27.8 71 -28 -28 1010.9 968.0
18 21.03 ЮВ 1 50 км 4/3 1000 м
[Sc As trans]
-31.8 -36.0 66 -36 -36 опасность
обморожения
1013.6 969.3
21 21.03 штиль 0 50 км 3/3 1000 м
[Sc]
-29.9 -33.9 68 -30 -29 1012.6 968.7 -33.5 161
00 22.03 З 1 50 км 9/8 600 м
[Sc Ci fib]
-12.5 -22.1 45 -15 -13 1008.8 967.9
03 22.03 З 1 50 км 10/10 600 м
[Sc]
-7.7 -20.5 35 -9 -9 1006.8 966.7
06 22.03 ЮВ 2 50 км 6/6 1000 м
[Sc]
-5.7 -14.9 48 -9 -9 1003.7 964.0
09 22.03 СВ 6-11
{12}
2000 м слаб. ливневой снег {метель} 10/10 600 м
[Cb cap]
-6.0 -10.9 68 -14 -14 1002.4 962.7 -5.1 0.0
12 22.03 В 6-11
{14}
1000 м ливневой снег {метель} 10/10 600 м
[Cb cap]
-7.1 -10.9 74 -15 -15 1001.1 961.3
15 22.03 В 7-14
{14}
1000 м ливневой снег {метель} 10/10 600 м
[Cb cap]
-6.4 -13.1 59 -15 -15 998.3 958.7
18 22.03 СВ 3
{15}
2000 м слаб. ливневой снег {метель} 10/10 600 м
[Cb cap]
-6.5 -12.1 64 -12 -12 994.4 955.0
21 22.03 СВ 4
{11}
2000 м слаб. ливневой снег {метель} 10/10 600 м
[Cb cap]
-5.6 -9.7 73 -12 -12 990.6 951.5 -7.2 3 157
00 23.03 СВ 7-14
{16}
2000 м слаб. ливневой снег {метель} 10/10 600 м
[Cb cap]
-4.2 -8.1 74 -12 -12 986.2 947.5
03 23.03 СВ 8-14
{16}
1000 м слаб. ливневой снег {метель} 10/10 600 м
[Cb cap]
-2.8 -7.1 72 -11 -11 980.8 942.5
06 23.03 СВ 4-10
{16}
1000 м ливневой снег {метель} 10/10 600 м
[Cb cap]
-2.1 -6.6 71 -8 -8 979.5 941.3
09 23.03 СВ 10-18
{18}
1000 м ливневой снег {метель} 10/10 600 м
[Cb cap]
-1.5 -6.6 68 -10 -10 978.0 940.0 -1.4 0.6
12 23.03 СВ 7-15
{18}
1000 м ливневой снег {метель} 10/10 600 м
[Cb cap]
-1.4 -8.1 60 -8 -8 977.5 939.5
15 23.03 С 2
{15}
4000 м слаб. ливневой снег {метель} 10/10 600 м
[Cb cap]
-1.8 -8.8 59 -5 -5 980.0 941.8
18 23.03 СЗ 2 4000 м слаб. ливневой снег {метель} 10/10 600 м
[Cb cap]
-3.3 -9.4 63 -7 -7 982.4 943.9
21 23.03 С 2 4000 м слаб. ливневой снег 10/10 600 м
[Cb cap]
-3.9 -9.7 64 -8 -8 984.8 946.2 -4.3 0.2 161
00 24.03 С 1 4000 м слаб. ливневой снег 9/9 600 м
[Cb cap]
-2.1 -8.7 61 -4 -3 986.2 947.8
03 24.03 СЗ 2 4000 м слаб. ливневой снег 10/10 600 м
[Cb cap]
-1.7 -6.8 68 -5 -5 986.7 948.3
06 24.03 штиль 0 4000 м слаб. ливневой снег 10/10 600 м
[Cb cap]
-2.0 -8.2 63 -3 -3 987.6 949.1
09 24.03 штиль 0 2000 м слаб. ливневой снег 10/10 600 м
[Cb cap]
-4.2 -5.4 91 -5 -5 989.0 950.1 -1.4 0.2
12 24.03 СЗ 1 1000 м ливневой снег 10/10 600 м
[Cb cap]
-4.8 -5.9 92 -7 -7 989.3 950.4
15 24.03 Ю 1 1000 м ливневой снег 10/10 600 м
[Cb cap]
-5.5 -6.5 93 -8 -8 988.8 949.8
18 24.03 ЮЗ 1 4000 м слаб. ливневой снег 10/10 600 м
[Cb cap]
-7.8 -9.0 91 -10 -10 988.6 949.2
21 24.03 З 1 50 км в посл. час ливневой снег 10/10 600 м
[Sc diur, vesp]
-4.3 -9.1 69 -6 -6 987.8 949.0 -8.0 2 163
00 25.03 З 4 50 км {ливн. осадки} 9/9 600 м
[Sc]
-3.0 -9.8 59 -9 -8 987.3 948.7
03 25.03 ЮЗ 4 50 км позёмок {ливн. осадки} 8/8 600 м
[Sc diur, vesp]
-2.3 -8.9 61 -8 -7 986.0 947.5
06 25.03 З 3 4000 м слаб. ливневой снег {метель} 9/9 600 м
[Cb cap]
-3.2 -8.4 67 -8 -8 986.6 948.0
09 25.03 ЮЗ 5
{11}
50 км позёмок {ливн. осадки} 6/6 600 м
[Sc]
-9.0 -13.6 69 -17 -17 988.9 949.3 -1.6 0.0
12 25.03 В 1 50 км {ливн. осадки, метель} 6/4 1000 м
[Sc Ci sp]
-11.4 -14.7 77 -14 -14 988.5 948.6
15 25.03 В 1 50 км 4/4 1000 м
[Sc]
-15.6 -17.5 85 -18 -18 989.9 949.3
18 25.03 СЗ 1 50 км {метель} 6/3 1000 м
[Sc Ci sp]
-10.5 -16.0 64 -13 -13 989.1 949.3
21 25.03 Ю 2 50 км 6/6 1000 м
[Sc]
-11.6 -17.1 64 -16 -15 989.0 949.0 -17.0 161
00 26.03 З 5 50 км позёмок 6/6 1000 м
[Sc]
-5.9 -16.3 44 -13 -11 987.5 948.5
03 26.03 З 6-13
{13}
50 км позёмок 9/6 1000 м
[Sc Ci sp]
-4.1 -13.8 47 -11 -10 987.7 948.9
06 26.03 З 5-10
{13}
50 км позёмок 4/4 1000 м
[Sc]
-4.2 -13.1 50 -11 -10 989.6 950.7
09 26.03 З 3
{13}
50 км {метель} 8/8 1000 м
[Sc]
-6.1 -13.0 58 -11 -11 992.6 953.3 -3.1
12 26.03 З 3 50 км позёмок 9/9 1000 м
[Sc]
-5.5 -11.7 62 -11 -11 993.0 953.8
15 26.03 З 4 4000 м слаб. ливневой снег {метель} 10/10 600 м
[Cb cap]
-6.6 -11.9 66 -13 -13 994.7 955.3
18 26.03 З 2 4000 м слаб. ливневой снег {метель} 10/10 600 м
[Cb cap]
-6.6 -10.8 72 -11 -11 996.3 956.8

 

Местоположение метеостанции Начики (Камчатский край, Россия): широта 53.12 долгота 157.70 высота над уровнем моря 317 м.

В архиве по умолчанию представлена погода в Начиках за последнюю неделю. Архивные данные за месяц целиком и за предыдущие месяцы, начиная с января 2011 года, Вы можете получить, выбрав интересующий диапазон дат из раскрывающегося списка и нажав кнопку "Ввод!".


*Определитесь, кто Вы:
робот инопланетянин человек

Внимание! Время в таблицах - всемирное. Для получения местного времени необходимо прибавить поправку, которая равна 12 ч.

Смотрите также архив погоды в соседних городах и на ближайших метеорологических станциях:

Погода в Сосновке (Камчатский край, Россия) (40 км)
Погода в Петропавловск-Камч. 2 (Камчатский край, Россия) (54 км)
Погода в Петропавловск-Камчатском (Камчатский край, Россия) (66 км)
Погода в Петропавловском Маяке (Камчатский край, Россия) (72 км)
Погода в Большерецке (Камчатский край, Россия) (99 км)
Погода в Пущино (Камчатский край, Россия) (120 км)
Погода в Водопадной (Камчатский край, Россия) (146 км)
Погода в Соболево (Камчатский край, Россия) (177 км)
Погода в Мильково (Камчатский край, Россия) (181 км)
Погода в Семячике (Камчатский край, Россия) (183 км)

Пояснения к столбцам:

Ветер - указаны скорость ветра в м/с - средняя за 10 мин, порывы в срок и между сроками (в фигурных скобках) и направление, откуда дует ветер: С - северный, СВ - северо-восточный, В - восточный, ЮВ - юго-восточный, Ю - южный, ЮЗ - юго-западный, З - западный, СЗ - северо-западный.
Видимость - горизонтальная дальность видимости в метрах или километрах. При видимости от 1 до 10 км при отсутствии осадков обычно наблюдается дымка, при ухудшении видимости до 1 км и менее - туман. В сухую погоду видимость может ухудшаться дымом, пылью или мглою.
Явления - указаны атмосферные явления, наблюдавшиеся в срок или в последний час перед сроком; фигурными скобками обозначены явления, наблюдавшиеся между сроками (за 1-3 часа до срока); квадратными скобками обозначены град или гололедные отложения с указанием их диаметра в мм.
Облачность - указаны через наклонную черту общая и нижняя облачность в баллах и высота нижней границы облаков в метрах; квадратными скобками обозначены формы облаков: Ci - перистые, Cs - перисто-слоистые, Cc - перисто-кучевые, Ac - высококучевые, As - высокослоистые, Sc - слоисто-кучевые, Ns - слоисто-дождевые, Cu - кучевые, Cb - кучево-дождевые. Подробнее классификацию облаков см. в Атласе облаков (PDF).
T - Температура воздуха - температура, измеренная на высоте 2 м над землей.
Td - Температура точки росы - температура, при понижении до которой содержащийся в воздухе водяной пар достигнет насыщения.
f - Относительная влажность воздуха - влажноcть воздуха, измеренная на высоте 2 м над землей.
Te - Эффективная температура - температура, которую ощущает одетый по сезону человек в тени. Характеристика душности погоды. При расчете учитывается влияние влажности воздуха и скорости ветра на теплоощущения человека.
Tes - Эффективная температура на солнце - температура, которую ощущает человек, с поправкой на солнечный нагрев. Характеристика знойности погоды. Зависит от высоты солнца над горизонтом, облачности и скорости ветра. Ночью, в пасмурную погоду, а также при ветре 12 м/с и более поправка равна нулю.
P - Атмосферное давление - приведенное к уровню моря атмосферное давление.
Po - Атмосферное давление - измеренное на уровне метеостанции атмосферное давление.
Tmin - Минимальная температура - минимум температуры воздуха на высоте 2 м над землей.
Tmax - Максимальная температура - максимум температуры воздуха на высоте 2 м над землей.
R - Количество осадков - Количество выпавших осадков за период времени, мм. При наведении курсора мыши на число - период времени, за который выпало указанное количество осадков.
R24 - Количество осадков - Количество выпавших осадков за 24 часа, мм.
S - Снежный покров - Высота снежного покрова, см. При наведении курсора мыши на число - состояние снежного покрова и степень покрытия местности в баллах.